Wind_Speed
12 10 9 7 2 4 4 7 3 5 3 3 14 12 10 4 7 5 18 27 24 22 21 19 17 14 12 11 9 7 6 5 4 3 4 5 6 6 7 9 9 10 11 12 12 12 11 10 9
10 8 5 1 3 3 5 5 7 4 3 17 15 13 3 1 6 18 31 23 24 22 21 19 16 13 10 9 9 8 7 6 5 7 8 10 11 11 11 12 12 12 13 13 13 13 13 13 12
8 4 3 3 3 6 5 5 5 5 17 8 4 6 4 9 12 34 27 29 25 20 19 18 14 11 10 9 10 9 8 8 9 10 11 12 12 13 13 13 13 13 13 12 12 12 12 12 12
3 4 3 4 8 6 6 0 4 2 7 6 10 7 6 7 30 26 31 30 25 21 18 16 13 11 10 11 10 10 10 11 11 12 12 13 13 13 13 13 13 13 12 12 11 11 11 11 11
11 3 3 4 6 5 4 7 11 2 3 3 8 5 4 24 16 28 32 29 25 21 19 16 12 11 12 12 12 12 12 13 13 13 13 13 13 13 13 13 12 12 11 10 10 10 10 10 10
5 4 4 11 4 3 3 8 14 6 4 7 5 12 10 17 18 31 31 28 24 21 18 15 12 11 13 13 14 14 14 14 14 14 13 14 14 13 12 11 11 10 10 10 10 9 10 11 10
5 3 5 2 5 3 1 20 5 7 6 7 15 4 11 21 24 31 28 27 25 20 18 15 14 14 14 15 15 15 15 15 14 14 14 14 13 12 11 10 10 9 10 10 10 10 10 10 10
4 4 4 7 7 4 2 11 9 17 6 11 17 8 10 33 32 28 27 24 23 20 16 16 15 16 17 17 16 16 16 16 15 14 14 13 11 10 10 9 9 10 11 12 12 13 12 11 11
5 3 5 7 14 4 2 5 13 27 11 7 11 8 14 39 36 33 32 29 25 23 19 17 16 18 19 19 18 18 17 17 16 15 14 12 10 10 9 10 10 11 13 14 14 14 14 13 12
5 4 7 5 5 5 5 3 12 11 31 4 3 9 34 41 40 39 36 34 30 27 21 18 19 21 22 21 21 21 20 19 17 15 14 11 11 10 10 11 11 12 13 13 13 12 12 12 12
7 6 7 4 11 15 10 6 7 13 7 5 16 19 41 41 43 38 35 34 32 26 22 20 22 24 24 23 23 22 21 19 17 14 13 12 12 12 12 12 13 12 13 12 12 10 11 11 11
4 12 17 6 16 12 8 9 7 14 20 30 25 26 43 45 44 41 39 37 33 27 22 22 24 26 24 24 22 21 19 17 15 14 12 11 12 13 14 14 14 13 13 12 12 12 12 11 11
7 5 13 28 19 24 19 16 11 16 29 22 9 34 40 44 43 40 39 35 32 28 25 23 27 28 26 24 22 19 17 17 15 13 11 10 11 13 14 14 14 14 12 12 11 11 11 11 12
7 20 19 13 21 18 15 18 16 21 16 19 8 37 38 42 42 40 39 37 33 28 27 24 26 28 27 25 23 19 16 14 12 11 10 12 11 13 13 14 13 13 12 12 11 12 12 12 12
23 5 5 11 10 8 16 13 18 32 21 21 8 25 32 39 40 41 39 37 33 30 28 26 26 28 27 26 23 19 15 14 13 12 13 13 12 13 13 12 12 12 12 11 11 11 10 10 11
6 5 11 10 10 7 19 22 24 44 31 20 19 18 32 36 40 39 37 34 32 31 31 28 27 29 28 26 24 21 17 15 15 16 15 14 14 13 12 11 11 11 9 9 9 10 11 12 12
4 9 14 3 13 7 15 11 19 36 40 23 18 22 33 36 37 39 38 34 33 32 33 32 29 30 30 26 24 21 17 16 18 18 16 15 14 13 11 10 10 9 8 8 9 10 12 12 13
8 10 5 15 10 13 16 16 5 27 32 35 22 24 31 37 40 40 38 36 34 33 35 34 32 31 31 29 28 23 19 19 19 18 17 16 15 13 11 9 8 7 6 8 9 11 13 15 15
9 9 14 6 9 14 19 19 21 11 26 34 29 29 31 36 39 40 37 36 36 34 37 39 38 36 35 35 33 27 24 23 22 20 18 16 15 13 11 8 6 5 5 7 9 12 14 15 17
13 6 10 5 5 12 12 20 21 19 11 35 39 26 34 35 36 40 39 39 41 37 39 42 41 40 38 37 33 27 25 24 23 21 19 17 15 13 11 8 5 3 5 8 10 12 14 17 19
21 16 7 6 3 7 4 17 15 20 28 22 38 40 34 34 40 42 43 45 44 41 44 44 44 42 40 37 33 29 26 27 27 24 21 19 16 13 10 8 4 2 4 7 11 13 14 15 16
20 16 18 15 7 7 10 7 15 19 19 23 28 34 42 43 45 49 48 50 49 45 45 46 44 43 40 38 35 33 32 32 29 25 22 20 17 14 11 7 3 1 4 8 10 13 14 15 15
14 7 13 17 11 3 5 6 9 10 20 24 28 43 43 45 47 48 55 54 53 47 47 49 47 44 42 39 35 33 30 28 28 26 23 21 19 16 12 8 4 2 5 8 10 12 14 15 15
3 10 6 11 11 11 15 11 8 8 24 25 23 38 43 41 42 45 48 54 54 48 46 48 47 47 44 40 36 33 31 30 30 28 25 22 19 16 12 8 5 4 7 9 11 13 14 15 15
11 6 6 10 8 9 15 9 18 10 16 23 25 34 40 37 41 43 46 50 54 51 49 49 48 48 45 41 36 33 29 29 29 28 25 23 20 16 12 9 6 6 8 11 13 14 15 16 16
19 17 6 6 6 6 7 8 21 17 19 14 26 36 43 42 43 48 50 50 53 51 50 51 50 49 47 42 37 34 29 28 27 26 23 20 17 15 12 9 8 9 10 12 15 16 17 18 18
8 16 15 4 3 2 5 7 11 7 10 20 16 27 37 42 50 50 49 53 55 55 53 54 53 49 46 42 38 34 30 27 25 25 22 20 18 15 12 10 9 11 12 14 16 18 18 19 20
8 10 9 7 5 4 5 3 14 9 15 15 16 22 34 42 44 50 56 57 58 56 54 53 52 50 46 41 36 34 31 28 25 26 24 21 18 14 12 11 11 12 14 16 18 19 20 21 21
7 7 6 3 3 3 1 6 6 15 12 13 17 27 35 44 48 46 47 49 57 57 55 53 51 49 44 39 36 34 33 29 28 26 23 20 17 15 13 12 13 14 16 18 19 20 21 21 22
17 14 6 6 5 4 3 6 3 4 6 6 8 18 25 43 46 47 50 48 52 57 56 53 49 47 42 39 36 34 32 31 29 26 23 20 17 15 13 13 14 16 18 20 21 21 21 22 22
Wind_Direction
247 263 285 314 37 69 258 255 253 281 296 226 160 173 180 103 160 194 151 161 168 165 167 170 170 175 177 174 182 180 171 165 161 141 125 115 105 93 88 86 85 84 84 81 77 72 67 63 63
253 247 268 340 130 183 250 247 242 219 149 109 124 119 85 116 123 140 149 159 168 166 170 172 173 177 183 177 167 162 159 155 140 122 108 99 92 89 88 88 89 88 85 83 81 77 73 70 66
272 206 161 162 199 199 225 216 242 279 177 147 111 108 134 142 145 151 155 161 168 162 177 173 174 178 177 165 159 156 156 144 124 112 104 99 96 93 92 90 89 87 84 81 78 75 75 73 72
210 164 128 164 225 260 219 179 291 305 205 230 150 97 125 167 155 158 157 162 167 167 178 176 177 177 170 164 157 154 142 128 119 111 105 102 101 99 96 94 91 87 84 81 77 72 70 71 69
167 165 174 225 231 245 291 319 336 247 256 174 166 158 94 141 161 160 160 163 168 167 178 178 178 177 168 161 155 145 135 127 121 115 111 109 108 105 100 95 90 87 84 82 78 73 71 69 67
142 153 231 227 212 213 246 351 322 246 224 160 132 126 139 164 172 166 164 165 168 172 177 177 178 175 164 157 149 142 136 130 124 119 116 113 110 106 102 97 91 85 79 75 73 71 66 64 63
154 154 218 240 235 242 284 349 305 273 205 213 158 99 146 170 171 166 169 167 168 183 184 183 180 169 159 153 148 142 137 131 126 123 120 116 113 110 105 98 90 83 78 75 74 73 67 64 60
218 161 212 209 209 222 15 356 355 339 238 176 166 171 171 173 174 175 175 177 181 175 191 188 180 169 159 152 146 142 136 129 126 126 122 120 117 111 102 94 89 83 83 81 78 74 68 67 67
198 241 216 219 211 201 360 20 357 337 265 178 193 191 196 170 174 177 174 176 184 174 188 186 178 165 156 151 146 142 136 132 132 133 129 123 118 110 106 99 95 91 91 88 85 81 74 73 78
190 216 229 220 152 179 152 92 12 355 317 321 155 187 171 173 176 180 181 178 184 177 179 184 175 165 159 154 150 146 141 138 136 134 129 126 118 113 108 106 104 100 92 87 83 81 77 73 73
203 225 249 282 212 190 165 215 65 326 295 352 320 178 171 175 180 187 188 187 185 181 179 177 174 167 163 158 154 151 148 146 143 136 132 123 117 110 112 111 105 102 96 89 81 82 77 72 65
213 229 242 257 242 177 175 154 142 276 252 308 301 199 177 178 186 189 187 182 182 183 180 173 173 168 163 162 158 159 157 154 150 139 129 121 119 117 115 112 105 104 98 91 78 69 67 67 60
223 242 231 239 251 219 204 187 172 234 281 313 254 189 183 185 188 188 188 187 186 187 177 171 171 171 167 166 165 162 159 156 154 145 133 129 127 124 121 114 107 100 91 84 77 71 67 62 49
220 223 238 240 231 223 201 210 158 230 259 274 213 188 188 189 191 185 186 189 191 188 180 172 173 174 171 170 168 165 167 163 161 155 147 144 137 128 122 115 107 98 89 79 74 71 67 59 47
232 250 251 236 221 219 205 222 210 200 217 248 273 207 199 197 193 194 192 193 193 193 185 177 172 177 177 175 173 171 173 178 175 167 159 153 141 131 124 117 108 93 80 69 65 65 63 56 42
183 190 240 235 198 235 170 231 211 213 219 233 248 243 214 205 196 194 193 195 195 196 190 180 176 179 180 180 178 176 182 185 181 172 162 154 143 137 129 122 109 91 80 69 57 46 39 36 32
222 231 227 254 202 179 188 239 229 216 224 240 254 243 219 213 205 201 199 199 200 200 192 184 180 182 185 185 182 184 185 185 178 171 164 155 149 141 138 129 109 93 74 57 43 32 26 22 22
210 224 221 216 201 209 209 235 249 208 225 222 236 241 220 215 213 208 204 202 202 201 195 190 184 185 188 189 187 189 188 186 178 172 168 160 155 150 148 136 117 97 69 45 32 21 15 12 12
268 213 225 223 213 191 220 215 239 210 214 215 218 220 225 220 219 212 207 204 200 201 196 191 187 189 191 190 190 191 190 185 178 175 171 165 161 158 155 147 129 101 63 35 23 15 8 4 3
228 237 252 295 248 205 218 233 231 232 225 213 213 207 219 224 216 211 208 205 200 201 199 195 194 192 194 197 198 201 191 185 184 177 172 171 170 166 163 157 140 90 39 21 8 6 6 4 1
237 234 241 248 321 230 191 242 232 230 226 224 215 217 215 221 220 214 204 203 200 201 199 194 194 195 197 200 200 200 192 189 185 181 178 175 176 175 171 168 154 75 17 4 360 359 1 2 2
237 228 240 242 267 242 175 255 222 221 224 230 228 225 218 215 224 218 205 202 203 204 203 198 197 198 200 203 208 207 199 192 191 188 182 180 178 181 181 182 180 351 349 350 350 352 351 352 355
240 188 212 228 230 241 226 239 252 187 215 221 223 226 217 214 214 207 208 206 206 206 203 203 203 203 203 206 212 211 205 200 191 188 188 185 183 185 189 194 213 294 331 336 340 342 342 344 345
172 245 271 233 226 235 217 199 246 199 208 217 223 215 215 215 211 214 212 208 207 205 202 202 201 200 201 206 210 212 205 198 194 192 191 190 190 191 195 204 232 283 316 324 328 332 334 335 334
193 178 232 214 206 227 193 188 243 229 211 211 211 207 204 206 202 201 202 200 205 202 201 200 201 199 201 205 209 209 209 207 202 199 197 196 196 196 201 216 246 281 305 313 319 323 326 325 324
199 203 216 236 187 194 136 210 232 239 250 252 224 207 197 200 195 200 203 201 205 204 201 201 201 200 200 200 203 207 211 207 206 205 203 202 199 200 209 229 255 283 297 308 313 317 319 318 317
178 211 203 268 300 118 196 272 291 228 232 221 218 211 205 197 197 204 209 211 210 205 202 201 201 201 199 199 200 205 205 205 203 202 200 199 200 208 221 239 263 283 295 303 309 311 313 313 312
175 171 190 225 210 206 243 237 237 193 213 212 210 211 204 198 197 198 207 206 208 207 201 201 202 201 199 199 201 202 203 203 205 202 200 200 205 215 229 247 267 283 293 301 305 308 309 310 309
174 195 210 173 185 203 265 257 219 227 230 218 212 203 201 191 193 191 190 190 195 202 199 199 200 198 197 197 197 199 199 201 200 200 199 202 209 220 235 253 269 282 292 299 303 305 307 309 308
211 204 190 202 189 186 176 275 269 276 288 254 206 194 196 186 184 183 182 180 185 197 195 197 196 196 197 196 195 197 201 195 195 196 198 202 212 225 241 258 274 285 294 300 303 306 308 308 306
Height
1519 1520 1522 1523 1532 1533 1535 1520 1505 1502 1500 1498 1495 1503 1504 1505 1508 1523 1513 1517 1522 1526 1530 1534 1536 1537 1539 1540 1541 1542 1542 1543 1543 1543 1543 1543 1543 1543 1543 1543 1542 1542 1542 1541 1541 1540 1540 1539 1538
1517 1520 1521 1522 1534 1538 1529 1511 1505 1499 1498 1497 1498 1501 1504 1507 1505 1507 1512 1518 1522 1526 1530 1533 1535 1537 1539 1539 1540 1542 1543 1543 1544 1544 1544 1544 1544 1544 1544 1544 1544 1544 1544 1543 1543 1542 1541 1540 1540
1517 1518 1521 1525 1530 1529 1522 1503 1501 1497 1497 1496 1500 1502 1505 1504 1506 1508 1512 1516 1521 1525 1530 1532 1535 1537 1539 1540 1541 1542 1543 1544 1544 1545 1545 1545 1546 1546 1546 1546 1546 1546 1546 1545 1545 1544 1543 1543 1542
1516 1520 1521 1524 1522 1514 1506 1500 1500 1498 1498 1498 1498 1503 1505 1503 1505 1509 1512 1517 1521 1525 1530 1533 1535 1536 1538 1540 1541 1542 1543 1544 1545 1546 1546 1547 1547 1548 1548 1548 1548 1548 1547 1547 1547 1546 1545 1545 1544
1514 1517 1520 1520 1513 1507 1503 1501 1500 1498 1498 1497 1497 1502 1504 1505 1508 1510 1514 1518 1522 1525 1529 1533 1535 1537 1538 1540 1541 1543 1544 1545 1546 1547 1548 1548 1549 1549 1550 1550 1550 1550 1549 1549 1548 1548 1547 1546 1546
1512 1514 1520 1512 1509 1502 1501 1502 1502 1497 1496 1497 1499 1498 1504 1507 1508 1511 1516 1520 1524 1526 1529 1532 1535 1537 1539 1540 1542 1543 1545 1546 1547 1548 1550 1550 1551 1551 1551 1551 1551 1551 1551 1550 1550 1549 1549 1548 1547
1510 1514 1513 1509 1507 1503 1501 1500 1500 1497 1495 1496 1496 1500 1503 1506 1509 1512 1516 1520 1524 1527 1529 1532 1535 1537 1539 1541 1543 1544 1546 1547 1548 1550 1551 1552 1553 1553 1553 1553 1553 1553 1552 1552 1551 1551 1550 1550 1549
1511 1509 1509 1505 1504 1503 1501 1500 1499 1501 1494 1494 1494 1497 1500 1501 1507 1512 1517 1520 1524 1527 1529 1532 1535 1537 1539 1541 1543 1545 1547 1548 1549 1551 1552 1553 1554 1554 1554 1555 1555 1554 1554 1554 1553 1552 1552 1551 1550
1508 1509 1505 1499 1497 1496 1499 1498 1497 1499 1501 1492 1491 1491 1491 1498 1504 1510 1514 1518 1522 1525 1529 1531 1534 1537 1539 1542 1544 1546 1548 1550 1550 1552 1553 1554 1555 1555 1556 1556 1556 1556 1556 1555 1555 1555 1554 1553 1552
1505 1506 1499 1492 1491 1493 1496 1496 1495 1502 1505 1495 1491 1491 1492 1495 1500 1504 1510 1514 1519 1523 1527 1531 1533 1536 1539 1541 1543 1546 1548 1550 1551 1553 1553 1555 1556 1556 1557 1557 1558 1558 1558 1558 1558 1557 1557 1556 1554
1499 1497 1495 1491 1489 1489 1492 1494 1491 1508 1504 1498 1498 1495 1492 1495 1499 1503 1509 1514 1517 1522 1526 1529 1533 1536 1539 1541 1543 1545 1548 1550 1552 1553 1555 1556 1557 1557 1558 1559 1559 1560 1560 1560 1560 1559 1559 1558 1556
1497 1491 1492 1491 1490 1490 1491 1493 1497 1505 1505 1497 1492 1494 1491 1492 1495 1499 1506 1510 1515 1521 1526 1529 1532 1536 1539 1541 1543 1545 1548 1550 1552 1554 1555 1557 1558 1558 1559 1560 1561 1562 1562 1562 1562 1561 1560 1559 1558
1493 1489 1488 1489 1489 1488 1490 1489 1492 1495 1496 1495 1485 1489 1491 1492 1495 1500 1507 1511 1515 1519 1524 1528 1531 1535 1538 1541 1543 1546 1548 1550 1552 1554 1556 1558 1559 1560 1561 1562 1563 1563 1564 1564 1564 1563 1561 1560 1559
1486 1485 1485 1486 1484 1486 1488 1487 1489 1489 1491 1496 1490 1489 1490 1492 1494 1499 1504 1508 1513 1519 1522 1527 1531 1535 1538 1540 1543 1545 1549 1551 1553 1554 1556 1558 1560 1561 1562 1563 1564 1564 1564 1564 1565 1564 1563 1561 1560
1484 1486 1483 1481 1481 1482 1487 1490 1480 1480 1484 1491 1490 1492 1492 1492 1494 1497 1501 1506 1511 1517 1521 1525 1530 1534 1538 1540 1543 1545 1548 1551 1553 1555 1556 1558 1561 1562 1563 1564 1565 1565 1565 1565 1565 1565 1565 1563 1561
1483 1485 1485 1472 1477 1479 1483 1472 1472 1475 1479 1480 1486 1489 1491 1492 1493 1496 1499 1505 1510 1515 1519 1523 1528 1533 1538 1540 1543 1545 1548 1551 1553 1555 1557 1559 1561 1563 1564 1565 1565 1565 1566 1566 1566 1565 1565 1563 1562
1478 1476 1478 1474 1472 1475 1477 1469 1463 1469 1472 1478 1480 1482 1486 1490 1493 1496 1499 1502 1507 1513 1517 1521 1525 1531 1536 1540 1543 1545 1547 1550 1553 1555 1557 1558 1561 1562 1564 1565 1565 1566 1566 1566 1566 1565 1564 1563 1562
1471 1474 1474 1470 1468 1471 1472 1467 1459 1461 1468 1471 1478 1479 1481 1484 1487 1492 1496 1500 1505 1510 1515 1520 1523 1528 1534 1538 1542 1544 1546 1550 1552 1554 1556 1558 1560 1562 1564 1565 1566 1567 1567 1566 1565 1564 1563 1562 1561
1470 1470 1466 1460 1459 1463 1461 1466 1460 1459 1462 1466 1469 1472 1474 1476 1483 1488 1493 1497 1502 1507 1511 1516 1520 1525 1530 1534 1538 1541 1543 1548 1551 1553 1556 1558 1560 1562 1563 1565 1566 1566 1566 1566 1565 1564 1562 1561 1559
1466 1468 1466 1461 1456 1459 1458 1459 1455 1455 1455 1454 1461 1465 1466 1473 1476 1482 1488 1492 1496 1501 1507 1512 1516 1521 1526 1531 1536 1540 1542 1546 1550 1552 1555 1557 1559 1561 1562 1564 1565 1565 1565 1565 1565 1563 1561 1559 1556
1459 1463 1469 1465 1457 1454 1456 1454 1451 1445 1448 1451 1453 1457 1462 1463 1468 1473 1478 1486 1491 1495 1501 1507 1512 1517 1522 1528 1533 1538 1541 1544 1547 1550 1553 1555 1558 1560 1562 1563 1563 1564 1564 1564 1563 1562 1560 1558 1556
1455 1455 1457 1459 1465 1460 1451 1449 1437 1434 1439 1440 1441 1442 1443 1447 1455 1462 1466 1475 1483 1489 1497 1503 1509 1513 1519 1525 1529 1533 1535 1539 1544 1548 1551 1553 1556 1559 1561 1562 1562 1562 1563 1562 1562 1561 1559 1557 1555
1447 1450 1455 1456 1458 1457 1451 1452 1421 1426 1430 1425 1425 1428 1433 1440 1447 1452 1456 1463 1475 1483 1490 1498 1504 1508 1514 1521 1526 1531 1535 1539 1543 1546 1549 1551 1554 1557 1559 1560 1560 1561 1561 1561 1560 1559 1557 1555 1553
1442 1451 1452 1451 1452 1445 1439 1438 1416 1421 1406 1408 1412 1419 1426 1434 1440 1446 1454 1459 1468 1477 1484 1493 1499 1503 1509 1516 1522 1528 1533 1536 1539 1543 1546 1549 1552 1554 1556 1558 1558 1559 1558 1559 1558 1556 1555 1553 1551
1443 1447 1450 1441 1435 1423 1420 1433 1407 1395 1394 1392 1397 1408 1418 1428 1433 1440 1445 1452 1463 1468 1478 1487 1495 1499 1504 1511 1518 1525 1531 1533 1537 1540 1544 1546 1549 1552 1554 1556 1556 1556 1556 1556 1555 1554 1552 1550 1549
1431 1436 1434 1419 1415 1423 1430 1424 1385 1385 1394 1391 1393 1397 1405 1413 1423 1429 1438 1447 1455 1462 1472 1481 1488 1494 1501 1506 1514 1523 1528 1531 1535 1538 1542 1545 1548 1550 1552 1554 1554 1554 1553 1553 1552 1551 1549 1547 1546
1423 1427 1424 1426 1426 1424 1419 1409 1382 1383 1380 1380 1384 1388 1393 1400 1408 1415 1427 1436 1446 1456 1464 1475 1483 1491 1497 1504 1511 1520 1525 1529 1532 1536 1540 1543 1546 1548 1550 1551 1551 1551 1551 1549 1548 1547 1545 1544 1542
1410 1412 1423 1421 1410 1409 1405 1405 1375 1376 1372 1372 1377 1376 1384 1391 1403 1411 1417 1426 1438 1451 1460 1471 1480 1487 1494 1501 1508 1516 1522 1528 1531 1534 1537 1540 1543 1546 1548 1549 1549 1548 1547 1546 1544 1543 1541 1539 1538
1406 1407 1411 1409 1406 1411 1418 1393 1371 1361 1363 1361 1364 1365 1373 1382 1393 1404 1414 1424 1427 1442 1453 1466 1474 1483 1492 1498 1505 1513 1519 1524 1528 1532 1535 1538 1541 1543 1545 1546 1546 1545 1544 1542 1540 1538 1536 1534 1533
1390 1395 1405 1396 1401 1406 1420 1395 1364 1366 1366 1362 1359 1361 1367 1370 1381 1393 1403 1417 1423 1434 1444 1459 1471 1480 1487 1495 1502 1510 1516 1520 1524 1529 1532 1535 1538 1541 1542 1543 1543 1542 1539 1537 1535 1533 1532 1529 1528